Location: Peterborough
(44.3091°N, 78.3197°W)
Time: 07:26:52
(UTC-04:00)

Vanguard 1 Rocket - Pass Details

Date: 23 March 2023
Orbit: 655 x 4220 km, 34.3° (Epoch: 04 June)

Event Time Altitude Azimuth Distance (km) Brightness Sun altitude
Rises 22:29:25 0° 214° (SSW) 8,455 12.3 -30.7°
Reaches altitude 10° 22:36:24 10° 206° (SSW) 7,350 11.8 -31.7°
Enters shadow 22:51:04 31° 175° (S) 5,116 10.7 -33.7°
Maximum altitude 22:56:26 35° 152° (SSE) 4,561 - -34.4°
Drops below altitude 10° 23:09:41 10° 94° (E) 4,962 - -36.0°
Sets 23:13:11 0° 86° (E) 5,539 - -36.4°
